| time (UTC) | temp F | wind direction | speed MPH | gust MPH | rain 1hr in | rain 24hr in | rain mn in | humidity % | barometer mb |
| 20260506033528 | 66 | 237 | 3.0 | 14.0 | 0.00 | 0.00 | 0.00 | 68 | 1010.6 |
| 20260506033041 | 67 | 169 | 3.0 | 14.0 | 0.00 | 0.00 | 0.00 | 68 | 1010.5 |
| 20260506032526 | 67 | 205 | 5.0 | 14.0 | 0.00 | 0.00 | 0.00 | 68 | 1010.5 |
| 20260506032027 | 67 | 223 | 4.0 | 11.0 | 0.00 | 0.00 | 0.00 | 67 | 1010.6 |
| 20260506031545 | 67 | 254 | 4.0 | 11.0 | 0.00 | 0.00 | 0.00 | 67 | 1010.6 |
| 20260506031028 | 67 | 281 | 5.0 | 12.0 | 0.00 | 0.00 | 0.00 | 67 | 1010.6 |
| 20260506030525 | 67 | 241 | 3.0 | 12.0 | 0.00 | 0.00 | 0.00 | 67 | 1010.6 |
| 20260506030044 | 67 | 253 | 2.0 | 14.0 | 0.00 | 0.00 | 0.00 | 66 | 1010.7 |
| 20260506025529 | 67 | 184 | 3.0 | 14.0 | 0.00 | 0.00 | 0.00 | 66 | 1010.7 |
| 20260506025026 | 67 | 153 | 4.0 | 16.0 | 0.00 | 0.00 | 0.00 | 65 | 1010.7 |
| 20260506024557 | 67 | 105 | 4.0 | 16.0 | 0.00 | 0.00 | 0.00 | 65 | 1010.7 |
| 20260506024026 | 68 | 147 | 4.0 | 18.0 | 0.00 | 0.00 | 0.00 | 65 | 1010.8 |
| 20260506023526 | 68 | 229 | 4.0 | 18.0 | 0.00 | 0.00 | 0.00 | 64 | 1010.8 |
| 20260506023041 | 68 | 221 | 3.0 | 14.0 | 0.00 | 0.00 | 0.00 | 64 | 1010.8 |
| 20260506022532 | 68 | 238 | 5.0 | 14.0 | 0.00 | 0.00 | 0.00 | 63 | 1010.6 |
| 20260506022026 | 68 | 259 | 3.0 | 13.0 | 0.00 | 0.00 | 0.00 | 63 | 1010.6 |
| 20260506021541 | 68 | 244 | 4.0 | 13.0 | 0.00 | 0.00 | 0.00 | 62 | 1010.6 |
| 20260506021026 | 68 | 143 | 5.0 | 12.0 | 0.00 | 0.00 | 0.00 | 62 | 1010.7 |
| 20260506020526 | 68 | 254 | 4.0 | 11.0 | 0.00 | 0.00 | 0.00 | 61 | 1010.5 |
| 20260506020039 | 69 | 279 | 3.0 | 13.0 | 0.00 | 0.00 | 0.00 | 61 | 1010.6 |
| 20260506015526 | 69 | 202 | 5.0 | 19.0 | 0.00 | 0.00 | 0.00 | 60 | 1010.7 |
| 20260506015026 | 69 | 190 | 5.0 | 19.0 | 0.00 | 0.00 | 0.00 | 60 | 1010.6 |
| 20260506014548 | 69 | 189 | 6.0 | 19.0 | 0.00 | 0.00 | 0.00 | 59 | 1010.4 |
| 20260506014025 | 69 | 153 | 4.0 | 13.0 | 0.00 | 0.00 | 0.00 | 59 | 1010.3 |
| 20260506013525 | 69 | 111 | 4.0 | 14.0 | 0.00 | 0.00 | 0.00 | 58 | 1010.3 |
| 20260506013044 | 70 | 204 | 6.0 | 14.0 | 0.00 | 0.00 | 0.00 | 58 | 1010.3 |
| 20260506012526 | 70 | 186 | 4.0 | 14.0 | 0.00 | 0.00 | 0.00 | 57 | 1010.2 |
| 20260506012027 | 70 | 263 | 5.0 | 13.0 | 0.00 | 0.00 | 0.00 | 57 | 1010.1 |
| 20260506011602 | 70 | 78 | 6.0 | 13.0 | 0.00 | 0.00 | 0.00 | 57 | 1010.0 |
| 20260506011026 | 70 | 96 | 3.0 | 12.0 | 0.00 | 0.00 | 0.00 | 57 | 1010.2 |
| 20260506010525 | 70 | 263 | 4.0 | 19.0 | 0.00 | 0.00 | 0.00 | 57 | 1010.0 |
| 20260506010040 | 70 | 214 | 2.0 | 19.0 | 0.00 | 0.00 | 0.00 | 57 | 1010.0 |
| 20260506005525 | 70 | 250 | 4.0 | 19.0 | 0.00 | 0.00 | 0.00 | 57 | 1009.9 |
| 20260506005025 | 70 | 260 | 5.0 | 14.0 | 0.00 | 0.00 | 0.00 | 57 | 1010.0 |
| 20260506004559 | 70 | 200 | 5.0 | 12.0 | 0.00 | 0.00 | 0.00 | 57 | 1010.0 |
| 20260506004025 | 70 | 157 | 4.0 | 12.0 | 0.00 | 0.00 | 0.00 | 57 | 1009.8 |
| 20260506003527 | 70 | 115 | 2.0 | 10.0 | 0.00 | 0.00 | 0.00 | 57 | 1009.8 |
| 20260506003045 | 70 | 242 | 4.0 | 10.0 | 0.00 | 0.00 | 0.00 | 57 | 1009.7 |
| 20260506002525 | 70 | 138 | 3.0 | 10.0 | 0.00 | 0.00 | 0.00 | 57 | 1009.5 |
| 20260506002027 | 71 | 130 | 4.0 | 10.0 | 0.00 | 0.00 | 0.00 | 56 | 1009.5 |
| 20260506001545 | 71 | 254 | 2.0 | 10.0 | 0.00 | 0.00 | 0.00 | 56 | 1009.5 |
| 20260506001028 | 71 | 225 | 3.0 | 10.0 | 0.00 | 0.00 | 0.00 | 55 | 1009.5 |
| 20260506000528 | 72 | 200 | 4.0 | 13.0 | 0.00 | 0.00 | 0.00 | 54 | 1009.5 |
| 20260506000110 | 72 | 250 | 3.0 | 13.0 | 0.00 | 0.00 | 0.00 | 53 | 1009.4 |
| 20260505235527 | 72 | 143 | 4.0 | 11.0 | 0.00 | 0.00 | 0.00 | 52 | 1009.4 |
| 20260505235027 | 73 | 213 | 4.0 | 12.0 | 0.00 | 0.00 | 0.00 | 51 | 1009.5 |
| 20260505234547 | 73 | 222 | 4.0 | 12.0 | 0.00 | 0.00 | 0.00 | 49 | 1009.3 |
| 20260505234027 | 74 | 173 | 2.0 | 12.0 | 0.00 | 0.00 | 0.00 | 48 | 1009.4 |
| 20260505233530 | 74 | 166 | 4.0 | 11.0 | 0.00 | 0.00 | 0.00 | 47 | 1009.3 |
| 20260505233045 | 74 | 121 | 3.0 | 11.0 | 0.00 | 0.00 | 0.00 | 46 | 1009.2 |
| 20260505232527 | 75 | 273 | 3.0 | 11.0 | 0.00 | 0.00 | 0.00 | 45 | 1009.1 |
| 20260505232028 | 75 | 290 | 2.0 | 11.0 | 0.00 | 0.00 | 0.00 | 44 | 1009.1 |
| 20260505231551 | 76 | 211 | 5.0 | 12.0 | 0.00 | 0.00 | 0.00 | 43 | 1009.1 |
| 20260505231027 | 76 | 215 | 4.0 | 15.0 | 0.00 | 0.00 | 0.00 | 42 | 1009.0 |
| 20260505230527 | 77 | 200 | 5.0 | 15.0 | 0.00 | 0.00 | 0.00 | 41 | 1008.9 |
| 20260505230101 | 78 | 218 | 4.0 | 11.0 | 0.00 | 0.00 | 0.00 | 39 | 1008.9 |
| 20260505225530 | 78 | 167 | 6.0 | 13.0 | 0.00 | 0.00 | 0.00 | 37 | 1008.9 |
| 20260505225028 | 78 | 232 | 4.0 | 13.0 | 0.00 | 0.00 | 0.00 | 36 | 1008.9 |
| 20260505224545 | 78 | 280 | 4.0 | 13.0 | 0.00 | 0.00 | 0.00 | 36 | 1008.8 |
| 20260505224027 | 78 | 205 | 3.0 | 18.0 | 0.00 | 0.00 | 0.00 | 37 | 1008.9 |
| 20260505223525 | 78 | 200 | 6.0 | 18.0 | 0.00 | 0.00 | 0.00 | 36 | 1009.0 |
| 20260505223041 | 79 | 227 | 5.0 | 18.0 | 0.00 | 0.00 | 0.00 | 36 | 1009.0 |
| 20260505222526 | 79 | 154 | 5.0 | 17.0 | 0.00 | 0.00 | 0.00 | 37 | 1009.0 |
| 20260505222028 | 79 | 252 | 7.0 | 17.0 | 0.00 | 0.00 | 0.00 | 37 | 1008.9 |
| 20260505221552 | 80 | 224 | 4.0 | 16.0 | 0.00 | 0.00 | 0.00 | 37 | 1008.8 |
| 20260505221027 | 80 | 296 | 4.0 | 17.0 | 0.00 | 0.00 | 0.00 | 37 | 1008.7 |
| 20260505220528 | 80 | 244 | 7.0 | 20.0 | 0.00 | 0.00 | 0.00 | 36 | 1008.7 |
| 20260505220045 | 80 | 176 | 6.0 | 20.0 | 0.00 | 0.00 | 0.00 | 36 | 1008.7 |
| 20260505215527 | 80 | 247 | 7.0 | 20.0 | 0.00 | 0.00 | 0.00 | 36 | 1008.7 |
| 20260505215027 | 80 | 273 | 7.0 | 18.0 | 0.00 | 0.00 | 0.00 | 35 | 1008.7 |
| 20260505214541 | 80 | 317 | 4.0 | 21.0 | 0.00 | 0.00 | 0.00 | 35 | 1008.7 |
| 20260505214026 | 80 | 285 | 7.0 | 21.0 | 0.00 | 0.00 | 0.00 | 35 | 1008.6 |
| 20260505213527 | 81 | 252 | 6.0 | 16.0 | 0.00 | 0.00 | 0.00 | 35 | 1008.7 |
| 20260505213040 | 81 | 267 | 4.0 | 17.0 | 0.00 | 0.00 | 0.00 | 35 | 1008.5 |
| 20260505212527 | 81 | 220 | 5.0 | 19.0 | 0.00 | 0.00 | 0.00 | 34 | 1008.5 |
| 20260505212027 | 81 | 261 | 7.0 | 19.0 | 0.00 | 0.00 | 0.00 | 33 | 1008.4 |
| 20260505211547 | 81 | 266 | 5.0 | 17.0 | 0.00 | 0.00 | 0.00 | 33 | 1008.5 |
| 20260505211027 | 81 | 243 | 5.0 | 19.0 | 0.00 | 0.00 | 0.00 | 33 | 1008.2 |
| 20260505210527 | 81 | 253 | 8.0 | 23.0 | 0.00 | 0.00 | 0.00 | 33 | 1008.5 |
| 20260505210046 | 81 | 249 | 7.0 | 23.0 | 0.00 | 0.00 | 0.00 | 32 | 1008.3 |
| 20260505205525 | 82 | 278 | 5.0 | 18.0 | 0.00 | 0.00 | 0.00 | 32 | 1008.3 |
| 20260505205028 | 82 | 188 | 6.0 | 14.0 | 0.00 | 0.00 | 0.00 | 33 | 1008.2 |
| 20260505204549 | 82 | 257 | 6.0 | 19.0 | 0.00 | 0.00 | 0.00 | 32 | 1008.3 |
| 20260505204025 | 82 | 234 | 6.0 | 21.0 | 0.00 | 0.00 | 0.00 | 32 | 1008.2 |
| 20260505203525 | 82 | 257 | 6.0 | 21.0 | 0.00 | 0.00 | 0.00 | 31 | 1008.3 |
| 20260505203053 | 82 | 246 | 7.0 | 15.0 | 0.00 | 0.00 | 0.00 | 31 | 1008.3 |
| 20260505202525 | 82 | 206 | 5.0 | 24.0 | 0.00 | 0.00 | 0.00 | 32 | 1008.2 |
| 20260505202025 | 82 | 269 | 9.0 | 24.0 | 0.00 | 0.00 | 0.00 | 31 | 1008.3 |
| 20260505201540 | 82 | 140 | 6.0 | 18.0 | 0.00 | 0.00 | 0.00 | 32 | 1008.2 |
| 20260505201025 | 82 | 248 | 3.0 | 18.0 | 0.00 | 0.00 | 0.00 | 33 | 1008.3 |
| 20260505200529 | 82 | 143 | 6.0 | 18.0 | 0.00 | 0.00 | 0.00 | 32 | 1008.4 |
| 20260505200047 | 82 | 260 | 6.0 | 17.0 | 0.00 | 0.00 | 0.00 | 33 | 1008.4 |
| 20260505195526 | 82 | 252 | 7.0 | 17.0 | 0.00 | 0.00 | 0.00 | 33 | 1008.5 |
| 20260505195025 | 82 | 256 | 7.0 | 22.0 | 0.00 | 0.00 | 0.00 | 31 | 1008.5 |
| 20260505194558 | 82 | 236 | 7.0 | 22.0 | 0.00 | 0.00 | 0.00 | 33 | 1008.5 |
| 20260505194027 | 82 | 275 | 6.0 | 20.0 | 0.00 | 0.00 | 0.00 | 34 | 1008.5 |
| 20260505193526 | 82 | 302 | 3.0 | 16.0 | 0.00 | 0.00 | 0.00 | 35 | 1008.5 |
| 20260505193044 | 82 | 315 | 5.0 | 21.0 | 0.00 | 0.00 | 0.00 | 36 | 1008.8 |
| 20260505192525 | 82 | 250 | 7.0 | 22.0 | 0.00 | 0.00 | 0.00 | 35 | 1008.8 |
| 20260505192025 | 82 | 266 | 8.0 | 22.0 | 0.00 | 0.00 | 0.00 | 36 | 1008.7 |
| 20260505191553 | 82 | 230 | 7.0 | 15.0 | 0.00 | 0.00 | 0.00 | 36 | 1008.8 |
| 20260505191025 | 82 | 288 | 6.0 | 17.0 | 0.00 | 0.00 | 0.00 | 35 | 1008.9 |
| 20260505190531 | 82 | 213 | 4.0 | 17.0 | 0.00 | 0.00 | 0.00 | 35 | 1008.9 |
| 20260505190041 | 82 | 261 | 8.0 | 17.0 | 0.00 | 0.00 | 0.00 | 35 | 1009.0 |
| 20260505185525 | 81 | 247 | 7.0 | 19.0 | 0.00 | 0.00 | 0.00 | 36 | 1009.1 |
| 20260505185029 | 81 | 229 | 7.0 | 22.0 | 0.00 | 0.00 | 0.00 | 35 | 1009.2 |
| 20260505184544 | 81 | 238 | 9.0 | 22.0 | 0.00 | 0.00 | 0.00 | 36 | 1009.3 |
| 20260505184024 | 82 | 225 | 5.0 | 19.0 | 0.00 | 0.00 | 0.00 | 35 | 1009.1 |
| 20260505183525 | 82 | 225 | 7.0 | 17.0 | 0.00 | 0.00 | 0.00 | 36 | 1009.3 |
| 20260505183046 | 82 | 111 | 6.0 | 14.0 | 0.00 | 0.00 | 0.00 | 37 | 1009.4 |
| 20260505182527 | 82 | 279 | 6.0 | 15.0 | 0.00 | 0.00 | 0.00 | 38 | 1009.4 |
| 20260505182025 | 81 | 66 | 5.0 | 17.0 | 0.00 | 0.00 | 0.00 | 39 | 1009.3 |
| 20260505181544 | 81 | 278 | 6.0 | 17.0 | 0.00 | 0.00 | 0.00 | 37 | 1009.3 |
| 20260505181025 | 81 | 269 | 5.0 | 17.0 | 0.00 | 0.00 | 0.00 | 37 | 1009.5 |
| 20260505180526 | 81 | 177 | 6.0 | 17.0 | 0.00 | 0.00 | 0.00 | 37 | 1009.6 |
| 20260505180048 | 81 | 281 | 4.0 | 16.0 | 0.00 | 0.00 | 0.00 | 39 | 1009.7 |
| 20260505175525 | 81 | 142 | 5.0 | 16.0 | 0.00 | 0.00 | 0.00 | 39 | 1009.7 |
| 20260505175025 | 81 | 254 | 6.0 | 17.0 | 0.00 | 0.00 | 0.00 | 38 | 1009.8 |
| 20260505174547 | 81 | 227 | 5.0 | 17.0 | 0.00 | 0.00 | 0.00 | 39 | 1009.8 |
| 20260505174025 | 80 | 211 | 4.0 | 16.0 | 0.00 | 0.00 | 0.00 | 39 | 1009.9 |
| 20260505173528 | 80 | 246 | 6.0 | 16.0 | 0.00 | 0.00 | 0.00 | 38 | 1009.9 |
| 20260505173059 | 80 | 260 | 7.0 | 14.0 | 0.00 | 0.00 | 0.00 | 38 | 1010.0 |
| 20260505172528 | 81 | 293 | 4.0 | 14.0 | 0.00 | 0.00 | 0.00 | 40 | 1009.8 |
| 20260505172027 | 80 | 224 | 7.0 | 15.0 | 0.00 | 0.00 | 0.00 | 38 | 1010.0 |
| 20260505171556 | 81 | 211 | 3.0 | 15.0 | 0.00 | 0.00 | 0.00 | 38 | 1009.9 |
| 20260505171026 | 80 | 256 | 5.0 | 12.0 | 0.00 | 0.00 | 0.00 | 39 | 1010.0 |
| 20260505170525 | 80 | 250 | 5.0 | 13.0 | 0.00 | 0.00 | 0.00 | 39 | 1010.0 |
| 20260505170043 | 80 | 178 | 5.0 | 14.0 | 0.00 | 0.00 | 0.00 | 40 | 1010.1 |
| 20260505165525 | 80 | 230 | 4.0 | 15.0 | 0.00 | 0.00 | 0.00 | 40 | 1010.1 |
| 20260505165026 | 80 | 107 | 6.0 | 15.0 | 0.00 | 0.00 | 0.00 | 38 | 1010.1 |
| 20260505164546 | 80 | 246 | 4.0 | 12.0 | 0.00 | 0.00 | 0.00 | 40 | 1010.2 |
| 20260505164025 | 80 | 280 | 4.0 | 12.0 | 0.00 | 0.00 | 0.00 | 39 | 1010.2 |
| 20260505163525 | 80 | 275 | 1.0 | 11.0 | 0.00 | 0.00 | 0.00 | 41 | 1010.2 |
| 20260505163045 | 80 | 230 | 3.0 | 11.0 | 0.00 | 0.00 | 0.00 | 40 | 1010.2 |
| 20260505162527 | 79 | 225 | 3.0 | 10.0 | 0.00 | 0.00 | 0.00 | 40 | 1010.3 |
| 20260505162025 | 79 | 182 | 2.0 | 9.0 | 0.00 | 0.00 | 0.00 | 41 | 1010.3 |
| 20260505161546 | 78 | 202 | 3.0 | 12.0 | 0.00 | 0.00 | 0.00 | 40 | 1010.3 |
| 20260505161025 | 79 | 290 | 3.0 | 12.0 | 0.00 | 0.00 | 0.00 | 41 | 1010.4 |
| 20260505160526 | 78 | 215 | 4.0 | 12.0 | 0.00 | 0.00 | 0.00 | 41 | 1010.6 |
| 20260505153045 | 77 | 223 | 3.0 | 9.0 | 0.00 | 0.00 | 0.00 | 45 | 1010.9 |
| 20260505152524 | 76 | 243 | 3.0 | 8.0 | 0.00 | 0.00 | 0.00 | 44 | 1010.9 |
| 20260505152028 | 77 | 273 | 2.0 | 8.0 | 0.00 | 0.00 | 0.00 | 45 | 1010.9 |
| 20260505151544 | 76 | 223 | 4.0 | 10.0 | 0.00 | 0.00 | 0.00 | 45 | 1010.9 |
| 20260505151026 | 76 | 273 | 3.0 | 10.0 | 0.00 | 0.00 | 0.00 | 45 | 1010.9 |
| 20260505150526 | 75 | 261 | 3.0 | 10.0 | 0.00 | 0.00 | 0.00 | 45 | 1010.9 |
| 20260505150105 | 76 | 264 | 4.0 | 10.0 | 0.00 | 0.00 | 0.00 | 44 | 1010.8 |
| 20260505140528 | 72 | 242 | 4.0 | 15.0 | 0.00 | 0.00 | 0.00 | 49 | 1011.2 |
| 20260505130105 | 69 | 202 | 2.0 | 11.0 | 0.00 | 0.00 | 0.00 | 55 | 1011.2 |
| 20260505125026 | 68 | 295 | 2.0 | 10.0 | 0.00 | 0.00 | 0.00 | 55 | 1011.0 |
| 20260505124552 | 68 | 286 | 2.0 | 11.0 | 0.00 | 0.00 | 0.00 | 56 | 1011.0 |
| 20260505124025 | 67 | 244 | 4.0 | 11.0 | 0.00 | 0.00 | 0.00 | 56 | 1011.1 |
| 20260505123525 | 67 | 252 | 3.0 | 9.0 | 0.00 | 0.00 | 0.00 | 57 | 1011.1 |
| 20260505123054 | 66 | 277 | 2.0 | 13.0 | 0.00 | 0.00 | 0.00 | 58 | 1011.1 |
| 20260505122525 | 66 | 254 | 2.0 | 13.0 | 0.00 | 0.00 | 0.00 | 59 | 1011.1 |
| 20260505122024 | 66 | 180 | 3.0 | 10.0 | 0.00 | 0.00 | 0.00 | 60 | 1011.1 |
| 20260505121612 | 65 | 259 | 2.0 | 12.0 | 0.00 | 0.00 | 0.00 | 61 | 1011.0 |
| 20260505121025 | 65 | 280 | 4.0 | 12.0 | 0.00 | 0.00 | 0.00 | 61 | 1011.0 |
| 20260505120524 | 65 | 234 | 1.0 | 9.0 | 0.00 | 0.00 | 0.00 | 63 | 1011.0 |
| 20260505120047 | 64 | 227 | 2.0 | 9.0 | 0.00 | 0.00 | 0.00 | 64 | 1011.0 |
| 20260505115527 | 64 | 256 | 2.0 | 9.0 | 0.00 | 0.00 | 0.00 | 65 | 1010.9 |
| 20260505115026 | 63 | 197 | 4.0 | 8.0 | 0.00 | 0.00 | 0.00 | 66 | 1011.0 |
| 20260505114545 | 63 | 212 | 3.0 | 8.0 | 0.00 | 0.00 | 0.00 | 66 | 1011.0 |
| 20260505114024 | 62 | 160 | 2.0 | 8.0 | 0.00 | 0.00 | 0.00 | 69 | 1010.9 |
| 20260505113528 | 62 | 232 | 3.0 | 10.0 | 0.00 | 0.00 | 0.00 | 69 | 1010.9 |
| 20260505113046 | 62 | 201 | 2.0 | 10.0 | 0.00 | 0.00 | 0.00 | 70 | 1010.8 |
| 20260505112528 | 62 | 240 | 3.0 | 9.0 | 0.00 | 0.00 | 0.00 | 70 | 1010.8 |
| 20260505112024 | 61 | 336 | 2.0 | 5.0 | 0.00 | 0.00 | 0.00 | 71 | 1010.7 |
| 20260505111542 | 61 | 231 | 0.0 | 5.0 | 0.00 | 0.00 | 0.00 | 73 | 1010.8 |
| 20260505111024 | 61 | 234 | 2.0 | 5.0 | 0.00 | 0.00 | 0.00 | 73 | 1010.7 |
| 20260505110525 | 60 | 259 | 1.0 | 4.0 | 0.00 | 0.00 | 0.00 | 74 | 1010.7 |
| 20260505102025 | 59 | 267 | 1.0 | 7.0 | 0.00 | 0.00 | 0.00 | 76 | 1010.5 |
| 20260505101543 | 59 | 200 | 1.0 | 7.0 | 0.00 | 0.00 | 0.00 | 76 | 1010.4 |
| 20260505101025 | 59 | 258 | 2.0 | 7.0 | 0.00 | 0.00 | 0.00 | 76 | 1010.3 |
| 20260505100525 | 59 | 170 | 2.0 | 5.0 | 0.00 | 0.00 | 0.00 | 77 | 1010.3 |
| 20260505100044 | 59 | 208 | 2.0 | 5.0 | 0.00 | 0.00 | 0.00 | 77 | 1010.3 |
| 20260505095526 | 59 | 249 | 2.0 | 7.0 | 0.00 | 0.00 | 0.00 | 77 | 1010.3 |
| 20260505095025 | 59 | 155 | 3.0 | 7.0 | 0.00 | 0.00 | 0.00 | 77 | 1010.3 |
| 20260505094545 | 59 | 150 | 1.0 | 5.0 | 0.00 | 0.00 | 0.00 | 78 | 1010.3 |
| 20260505094027 | 59 | 198 | 2.0 | 5.0 | 0.00 | 0.00 | 0.00 | 78 | 1010.3 |
| 20260505093525 | 59 | 215 | 1.0 | 4.0 | 0.00 | 0.00 | 0.00 | 79 | 1010.2 |
| 20260505093045 | 59 | 158 | 1.0 | 3.0 | 0.00 | 0.00 | 0.00 | 79 | 1010.4 |
| 20260505092525 | 59 | 219 | 1.0 | 3.0 | 0.00 | 0.00 | 0.00 | 79 | 1010.3 |
| 20260505092025 | 59 | 257 | 1.0 | 3.0 | 0.00 | 0.00 | 0.00 | 80 | 1010.3 |
| 20260505091549 | 59 | 160 | 1.0 | 4.0 | 0.00 | 0.00 | 0.00 | 80 | 1010.3 |
| 20260505091024 | 59 | 153 | 1.0 | 6.0 | 0.00 | 0.00 | 0.00 | 80 | 1010.2 |
| 20260505090524 | 59 | 197 | 1.0 | 6.0 | 0.00 | 0.00 | 0.00 | 80 | 1010.2 |
| 20260505090056 | 59 | 155 | 1.0 | 2.0 | 0.00 | 0.00 | 0.00 | 80 | 1010.2 |
| 20260505085526 | 59 | 179 | 1.0 | 2.0 | 0.00 | 0.00 | 0.00 | 79 | 1010.2 |
| 20260505085028 | 59 | 150 | 0.0 | 4.0 | 0.00 | 0.00 | 0.00 | 79 | 1010.4 |
| 20260505084546 | 59 | 246 | 1.0 | 4.0 | 0.00 | 0.00 | 0.00 | 79 | 1010.4 |
| 20260505084027 | 59 | 206 | 1.0 | 6.0 | 0.00 | 0.00 | 0.00 | 79 | 1010.4 |
| 20260505083527 | 59 | 265 | 2.0 | 6.0 | 0.00 | 0.00 | 0.00 | 79 | 1010.3 |
| 20260505083049 | 59 | 162 | 2.0 | 11.0 | 0.00 | 0.00 | 0.00 | 79 | 1010.4 |
| 20260505082527 | 59 | 252 | 2.0 | 11.0 | 0.00 | 0.00 | 0.00 | 79 | 1010.3 |
| 20260505082025 | 59 | 244 | 2.0 | 9.0 | 0.00 | 0.00 | 0.00 | 78 | 1009.9 |
| 20260505081544 | 60 | 217 | 2.0 | 8.0 | 0.00 | 0.00 | 0.00 | 78 | 1010.0 |
| 20260505081025 | 60 | 193 | 3.0 | 8.0 | 0.00 | 0.00 | 0.00 | 76 | 1010.1 |
| 20260505080528 | 60 | 235 | 3.0 | 8.0 | 0.00 | 0.00 | 0.00 | 74 | 1010.2 |
| 20260505080045 | 60 | 199 | 2.0 | 5.0 | 0.00 | 0.00 | 0.00 | 74 | 1010.3 |
| 20260505075524 | 60 | 206 | 2.0 | 5.0 | 0.00 | 0.00 | 0.00 | 73 | 1010.3 |
| 20260505075027 | 60 | 218 | 2.0 | 7.0 | 0.00 | 0.00 | 0.00 | 73 | 1010.4 |
| 20260505074544 | 60 | 257 | 2.0 | 7.0 | 0.00 | 0.00 | 0.00 | 73 | 1010.1 |
| 20260505074027 | 60 | 271 | 1.0 | 5.0 | 0.00 | 0.00 | 0.00 | 73 | 1010.1 |
| 20260505073525 | 60 | 216 | 2.0 | 5.0 | 0.00 | 0.00 | 0.00 | 73 | 1010.1 |
| 20260505073055 | 60 | 153 | 0.0 | 4.0 | 0.00 | 0.00 | 0.00 | 73 | 1010.0 |
| 20260505072524 | 60 | 256 | 1.0 | 4.0 | 0.00 | 0.00 | 0.00 | 74 | 1010.1 |
| 20260505072027 | 60 | 252 | 1.0 | 5.0 | 0.00 | 0.00 | 0.00 | 74 | 1010.0 |
| 20260505071544 | 59 | 221 | 2.0 | 5.0 | 0.00 | 0.00 | 0.00 | 74 | 1010.0 |
| 20260505071024 | 59 | 286 | 2.0 | 5.0 | 0.00 | 0.00 | 0.00 | 74 | 1009.9 |
| 20260505070524 | 59 | 234 | 1.0 | 4.0 | 0.00 | 0.00 | 0.00 | 74 | 1010.0 |
| 20260505070050 | 59 | 259 | 1.0 | 4.0 | 0.00 | 0.00 | 0.00 | 75 | 1009.9 |
| 20260505065524 | 59 | 271 | 0.0 | 5.0 | 0.00 | 0.00 | 0.00 | 74 | 1009.8 |
| 20260505065027 | 59 | 273 | 1.0 | 5.0 | 0.00 | 0.00 | 0.00 | 74 | 1009.8 |
| 20260505064546 | 59 | 225 | 1.0 | 5.0 | 0.00 | 0.00 | 0.00 | 74 | 1009.9 |
| 20260505064024 | 59 | 245 | 1.0 | 5.0 | 0.00 | 0.00 | 0.00 | 74 | 1009.9 |
| 20260505063524 | 59 | 254 | 0.0 | 4.0 | 0.00 | 0.00 | 0.00 | 74 | 1009.9 |
| 20260505063049 | 59 | 215 | 1.0 | 5.0 | 0.00 | 0.00 | 0.00 | 73 | 1009.8 |
| 20260505062528 | 59 | 241 | 1.0 | 5.0 | 0.00 | 0.00 | 0.00 | 73 | 1010.0 |
| 20260505062030 | 59 | 211 | 1.0 | 5.0 | 0.00 | 0.00 | 0.00 | 73 | 1009.9 |
| 20260505061545 | 59 | 160 | 1.0 | 6.0 | 0.00 | 0.00 | 0.00 | 72 | 1010.0 |
| 20260505061029 | 60 | 256 | 2.0 | 6.0 | 0.00 | 0.00 | 0.00 | 72 | 1010.0 |
| 20260505060525 | 60 | 259 | 1.0 | 6.0 | 0.00 | 0.00 | 0.00 | 72 | 1009.9 |
| 20260505060040 | 60 | 181 | 2.0 | 7.0 | 0.00 | 0.00 | 0.00 | 71 | 1010.0 |
| 20260505055528 | 60 | 139 | 3.0 | 7.0 | 0.00 | 0.00 | 0.00 | 70 | 1009.9 |
| 20260505055025 | 60 | 251 | 2.0 | 7.0 | 0.00 | 0.00 | 0.00 | 70 | 1009.9 |
| 20260505054600 | 61 | 226 | 1.0 | 5.0 | 0.00 | 0.00 | 0.00 | 69 | 1010.1 |
| 20260505054025 | 61 | 180 | 2.0 | 6.0 | 0.00 | 0.00 | 0.00 | 68 | 1010.0 |
| 20260505053525 | 61 | 153 | 1.0 | 6.0 | 0.00 | 0.00 | 0.00 | 68 | 1010.1 |
| 20260505053049 | 61 | 225 | 2.0 | 6.0 | 0.00 | 0.00 | 0.00 | 67 | 1010.3 |
| 20260505052527 | 61 | 265 | 3.0 | 7.0 | 0.00 | 0.00 | 0.00 | 67 | 1010.2 |
| 20260505052028 | 61 | 161 | 1.0 | 7.0 | 0.00 | 0.00 | 0.00 | 66 | 1010.2 |
| 20260505051544 | 62 | 215 | 2.0 | 9.0 | 0.00 | 0.00 | 0.00 | 66 | 1010.2 |
| 20260505051027 | 62 | 209 | 3.0 | 9.0 | 0.00 | 0.00 | 0.00 | 66 | 1010.2 |
| 20260505050528 | 61 | 124 | 4.0 | 10.0 | 0.00 | 0.00 | 0.00 | 66 | 1010.2 |
| 20260505041550 | 61 | 240 | 2.0 | 7.0 | 0.00 | 0.00 | 0.00 | 65 | 1010.3 |
| 20260505041027 | 61 | 220 | 2.0 | 7.0 | 0.00 | 0.00 | 0.00 | 65 | 1010.3 |
| 20260505040528 | 61 | 234 | 3.0 | 8.0 | 0.00 | 0.00 | 0.00 | 65 | 1010.3 |
| 20260505040044 | 61 | 134 | 2.0 | 9.0 | 0.00 | 0.00 | 0.00 | 65 | 1010.2 |
| 20260505035527 | 61 | 237 | 3.0 | 9.0 | 0.00 | 0.00 | 0.00 | 65 | 1010.3 |
| 20260505035027 | 61 | 245 | 1.0 | 8.0 | 0.00 | 0.00 | 0.00 | 65 | 1010.2 |
| 20260505034537 | 61 | 121 | 2.0 | 8.0 | 0.00 | 0.00 | 0.00 | 65 | 1010.2 |
| 20260505034027 | 61 | 146 | 2.0 | 8.0 | 0.00 | 0.00 | 0.00 | 64 | 1010.2 |